SBS 1

operational
NORAD ID: 12065 Int'l Des: 1980-091 Owner: SBS Country: US
HEOCIRCULAR

关于 SBS 1

正在加载描述...

实时位置

正在加载3D地球...

即将过境

高度历史

Altitude vs Time

uPlot chart will show altitude changes over time

两行轨道根数

1 12065U 80091A 26060.92127896 .00000024 00000-0 00000-0 0 9996
2 12065 10.1780 318.4892 0003988 198.9981 352.9958 0.99825319 45401
Epoch: Mar 1, 2026 • Age: 56 hours

当前状态

高度 35924.1 km
速度 3.07 km/s
星下点 -4.60°S, 17.31°E
发射日期 Nov 15, 1980
运行时间 45.2 years
类型 other

技术详情

分类 Payload
质量 521.00 kg
干质量 424.00 kg
总质量 1064.00 kg
长度 6.60 m
直径 2.20 m
跨度 6.60 m
形状 Cyl
制造商 HSES
平台类型 HS-376
阶段状态 Unknown Active Status
所有者/国家 SBS/US

大型星座

Loading constellations...